Weather History for Norwood, MA

Change the Weather History Date:

Saturday, October 6, 2012

  Actual Average Record
Temperature  
Mean Temperature 65 °F -  
Max Temperature 81 °F 63 °F 86 °F (2007)
Min Temperature 50 °F 39 °F 23 °F (1996)
Growing Degree Days 15 (Base 50)    
Moisture  
Dew Point 53 °F    
Average Humidity 83    
Maximum Humidity 94    
Minimum Humidity 47    
Precipitation  
Precipitation 0.02 in - - ()
Sea Level Pressure  
Sea Level Pressure 29.84 in    
Wind  
Wind Speed 2 mph (SW)    
Max Wind Speed 16 mph    
Max Gust Speed 25 mph    
Visibility 5 miles    
Events Fog , Rain , Thunderstorm    
Averages and records for this station are not official NWS values.
T = Trace of Precipitation, MM = Missing Value Source: NWS Daily Summary

Daily Weather History Graph

Daily Weather History Graph

Search for Another Location

Airport:

Trip Planner

Search our weather history database for the weather conditions in past years. The results will help you decide how hot, cold, wet, or windy it might be!

Date:

Astronomy

Oct. 06, 2012 Rise Set
Actual Time 6:47 AM EDT 6:16 PM EDT
Civil Twilight 6:19 AM EDT 6:44 PM EDT
Nautical Twilight 5:47 AM EDT 7:17 PM EDT
Astronomical Twilight 5:14 AM EDT 7:49 PM EDT
Moon 10:24 PM EDT (10/6) 12:44 PM EDT (10/6)
Length of Visible Light 12h 25m
Length of Day
11h 29m
Waning Gibbous, 65% of the Moon is Illuminated
Oct 6
Waning Gibbous
Oct 8
Last Quarter
Oct 15
New
Oct 21
First Quarter
Oct 29
Full

Hourly Weather History & Observations

Time (EDT) Temp. Dew Point Humidity Pressure Visibility Wind Dir Wind Speed Gust Speed Precip Events Conditions
12:32 AM 55.4 °F 51.8 °F 88% 29.91 in 1.2 mi Calm Calm - N/A   Scattered Clouds
12:40 AM 55.4 °F 51.8 °F 88% 29.91 in 4.0 mi Calm Calm - N/A   Partly Cloudy
12:53 AM 54.0 °F 52.0 °F 93% 29.91 in 2.0 mi Calm Calm - N/A   Clear
1:21 AM 53.6 °F 51.8 °F 94% 29.90 in 1.8 mi Calm Calm - N/A   Clear
1:25 AM 53.6 °F 51.8 °F 94% 29.90 in 0.8 mi Calm Calm - N/A   Mist
1:53 AM 54.0 °F 52.0 °F 93% 29.89 in 1.2 mi Calm Calm - N/A   Partly Cloudy
2:08 AM 53.6 °F 51.8 °F 94% 29.89 in 0.5 mi Calm Calm - N/A Fog Fog
2:17 AM 53.6 °F 51.8 °F 94% 29.89 in 2.0 mi Calm Calm - N/A   Clear
2:24 AM 53.6 °F 51.8 °F 94% 29.89 in 6.0 mi Calm Calm - N/A   Clear
2:34 AM 55.4 °F 51.8 °F 88% 29.88 in 1.5 mi Calm Calm - N/A   Clear
2:38 AM 53.6 °F 51.8 °F 94% 29.88 in 0.8 mi Calm Calm - N/A   Mist
2:53 AM 54.0 °F 52.0 °F 93% 29.88 in 0.2 mi Calm Calm - N/A Fog Fog
3:01 AM 53.6 °F 51.8 °F 94% 29.87 in 0.8 mi Calm Calm - N/A   Mist
3:08 AM 53.6 °F 51.8 °F 94% 29.87 in 1.0 mi Calm Calm - N/A   Mist
3:37 AM 53.6 °F 51.8 °F 94% 29.87 in 1.8 mi Calm Calm - N/A   Mostly Cloudy
3:46 AM 53.6 °F 51.8 °F 94% 29.87 in 0.5 mi Calm Calm - N/A Fog Fog
3:53 AM 54.0 °F 51.1 °F 90% 29.87 in 0.5 mi Calm Calm - N/A Fog Fog
4:03 AM 53.6 °F 51.8 °F 94% 29.87 in 1.2 mi Calm Calm - N/A   Scattered Clouds
4:16 AM 53.6 °F 51.8 °F 94% 29.87 in 1.0 mi Calm Calm - N/A   Mist
4:20 AM 53.6 °F 50.0 °F 88% 29.87 in 2.0 mi Calm Calm - N/A   Partly Cloudy
4:28 AM 53.6 °F 50.0 °F 88% 29.87 in 5.0 mi Calm Calm - N/A   Scattered Clouds
4:35 AM 53.6 °F 50.0 °F 88% 29.87 in 7.0 mi Calm Calm - N/A   Mostly Cloudy
4:53 AM 52.0 °F 48.9 °F 89% 29.86 in 4.0 mi Calm Calm - N/A   Overcast
5:01 AM 53.6 °F 48.2 °F 82% 29.86 in 4.0 mi Calm Calm - N/A   Overcast
5:39 AM 51.8 °F 48.2 °F 88% 29.85 in 0.8 mi Calm Calm - N/A   Mist
5:53 AM 53.1 °F 50.0 °F 89% 29.85 in 0.2 mi Calm Calm - N/A Fog Fog
6:01 AM 51.8 °F 48.2 °F 88% 29.85 in 2.0 mi Calm Calm - N/A   Overcast
6:09 AM 51.8 °F 50.0 °F 94% 29.85 in 0.8 mi Calm Calm - N/A   Mist
6:21 AM 51.8 °F 50.0 °F 94% 29.85 in 1.2 mi Calm Calm - N/A   Scattered Clouds
6:36 AM 51.8 °F 50.0 °F 94% 29.85 in 0.8 mi Calm Calm - N/A   Mist
6:53 AM 51.1 °F 48.0 °F 89% 29.85 in 10.0 mi Calm Calm - N/A   Clear
7:53 AM 62.1 °F 60.1 °F 93% 29.85 in 3.0 mi South 5.8 mph - N/A   Partly Cloudy
8:53 AM 66.0 °F 62.1 °F 87% 29.83 in 6.0 mi South 5.8 mph - N/A   Clear
9:53 AM 70.0 °F 61.0 °F 73% 29.83 in 10.0 mi SSW 5.8 mph - N/A   Clear
10:53 AM 73.0 °F 61.0 °F 66% 29.81 in 10.0 mi SSW 6.9 mph - N/A   Clear
11:53 AM 78.1 °F 57.9 °F 50% 29.78 in 10.0 mi SW 15.0 mph 24.2 mph 0.01 in   Clear
12:53 PM 78.1 °F 59.0 °F 52% 29.75 in 10.0 mi SSW 13.8 mph 23.0 mph N/A   Partly Cloudy
1:53 PM 79.0 °F 57.9 °F 48% 29.73 in 10.0 mi SSW 12.7 mph 21.9 mph N/A   Mostly Cloudy
2:53 PM 79.0 °F 57.0 °F 47% 29.71 in 10.0 mi SSW 16.1 mph 23.0 mph N/A   Scattered Clouds
3:53 PM 78.1 °F 57.9 °F 50% 29.70 in 10.0 mi SSW 15.0 mph 25.3 mph N/A   Clear
4:53 PM 75.9 °F 57.9 °F 54% 29.70 in 10.0 mi SSW 11.5 mph 21.9 mph N/A   Mostly Cloudy
5:53 PM 73.9 °F 60.1 °F 62% 29.72 in 10.0 mi SSW 9.2 mph - N/A   Overcast
6:18 PM 69.8 °F 62.6 °F 78% 29.76 in 2.5 mi West 12.7 mph - 0.08 in Rain Light Rain
6:22 PM 68.0 °F 62.6 °F 83% 29.76 in 5.0 mi WNW 16.1 mph 24.2 mph 0.08 in Rain Light Rain
6:30 PM 64.4 °F 60.8 °F 88% 29.78 in 4.0 mi WNW 15.0 mph 24.2 mph 0.11 in Rain , Thunderstorm Rain
6:59 PM 62.6 °F 57.2 °F 82% 29.81 in 10.0 mi West 8.1 mph - N/A   Overcast
7:53 PM 61.0 °F 54.0 °F 78% 29.83 in 10.0 mi WSW 4.6 mph - 0.01 in   Overcast
8:53 PM 57.9 °F 52.0 °F 81% 29.86 in 10.0 mi West 4.6 mph - N/A   Partly Cloudy
9:53 PM 57.0 °F 48.9 °F 74% 29.90 in 10.0 mi WNW 6.9 mph - N/A   Clear
10:53 PM 55.0 °F 45.0 °F 69% 29.92 in 10.0 mi WNW 4.6 mph - N/A   Clear
11:53 PM 50.0 °F 45.0 °F 83% 29.94 in 10.0 mi Calm Calm - N/A   Clear